Location: Sternwarte ZA, Rosenfeld-Brittheim
(48.2889°N, 8.6789°E)
Time: 06:24:31
(UTC+01:00)

ISS - Pass Details

Date: 01 December 2020
Orbit: 418 x 421 km, 51.6° (Epoch: 26 November)

Event Time Altitude Azimuth Distance (km) Brightness Sun altitude
Rises 17:25:06 0° 276° (W) 2,364 1.2 -8.4°
Reaches altitude 10° 17:27:15 10° 283° (WNW) 1,500 -0.1 -8.8°
Maximum altitude 17:30:30 45° 358° (N) 583 -3.2 -9.3°
Enters shadow 17:33:09 14° 69° (ENE) 1,270 -2.0 -9.7°
